• Join FlightAware (Why Join?)
  • Login
  • US Flag 
02:36PM EST


 

Airport Tracker/Info


-or-


 

Live Flight TrackerFlight Track Log ✈ SQH87 ✈ 07-Apr-2013 ✈ KSLN - KMCI

Flight Track Log - Related Links

Times and Time Zones

All times are in EDT time to prevent confusion due to time zone crossing. See the SQH87 flight status page for this flight to view local times or setup timezone preferences in your user account.

Time Position Orientation Groundspeed Altitude Reporting Facility
EDT Latitude Longitude Course Direction KTS MPH feet Rate Location/Type
07:06AM 38.8236 -97.5544 75° East 166 191 4,800  Level Kansas City Center
07:07AM 38.8353 -97.4989 75° East 168 193 6,500 1,714 Climbing Kansas City Center
07:08AM 38.8469 -97.4364 77° East 172 198 8,200 1,714 Climbing Kansas City Center
07:09AM 38.8564 -97.3764 79° East 178 205 9,900 1,645 Climbing Kansas City Center
07:10AM 38.8694 -97.3119 75° East 180 207 11,600 1,550 Climbing Kansas City Center
07:11AM 38.8800 -97.2481 78° East 188 216 13,000 1,475 Climbing Kansas City Center
07:12AM 38.8928 -97.1775 77° East 194 223 14,500 1,366 Climbing Kansas City Center
07:13AM 38.9047 -97.1097 77° East 201 231 15,800 1,131 Climbing Kansas City Center
07:14AM 38.9178 -97.0347 77° East 213 245 16,800 605 Climbing Kansas City Center
07:15AM 38.9322 -96.9533 77° East 231 266 17,000 100 Climbing Kansas City Center
07:16AM 38.9486 -96.8608 77° East 261 300 17,000  Level Kansas City Center
07:17AM 38.9647 -96.7686 77° East 264 304 17,000  Level Kansas City Center
07:18AM 38.9811 -96.6750 77° East 267 307 17,000  Level Kansas City Center
07:19AM 38.9969 -96.5844 77° East 277 319 17,000  Level Kansas City Center
07:20AM 39.0142 -96.4714 79° East 286 329 17,000  Level Kansas City Center
07:21AM 39.0308 -96.3767 77° East 285 328 17,000  Level Kansas City Center
07:22AM 39.0469 -96.2797 78° East 288 331 17,000 -50 Level Kansas City Center
07:23AM 39.0656 -96.1678 78° East 288 331 16,900 -732 Descending Kansas City Center
07:24AM 39.0817 -96.0719 78° East 286 329 15,500 -1,268 Descending Kansas City Center
07:25AM 39.0958 -95.9875 78° East 256 295 14,300 -1,271 Descending Kansas City Center
07:26AM 39.1139 -95.8781 78° East 280 322 13,000 -1,180 Descending Kansas City Center
07:27AM 39.1303 -95.7831 77° East 283 326 11,900 -1,230 Descending Kansas City Center
07:28AM 39.1450 -95.6906 78° East 277 319 10,500 -1,424 Descending Kansas City Center
07:29AM 39.1603 -95.5972 78° East 278 320 9,100 -1,512 Descending Kansas City Center
07:30AM 39.1772 -95.4922 78° East 271 312 7,400 -1,091 Descending Kansas City Center
07:31AM 39.1911 -95.4053 78° East 260 299 6,900 -655 Descending Kansas City Center
07:32AM 39.2289 -95.3308 57° Northeast 263 303 6,100 -435 Descending Kansas City Center
07:33AM 39.2722 -95.2597 52° Northeast 257 296 6,000 -49 Descending Kansas City Center
07:34AM 39.3197 -95.1828 51° Northeast 243 280 6,000 -250 Level Kansas City Center
07:35AM 39.3486 -95.1072 64° Northeast 248 285 5,500 -541 Descending Kansas City Center
07:36AM 39.3642 -95.0211 77° East 256 295 4,900 -303 Descending Kansas City Center
07:37AM 39.3758 -94.9242 81° East 244 281 4,900 -101 Level Kansas City Center
07:38AM 39.3822 -94.8456 84° East 229 264 4,700 -629 Descending Kansas City Center
07:39AM 39.3775 -94.7800 95° East 192 221 3,600 -1,024 Descending Kansas City Center
07:40AM 39.3658 -94.7253 105° East 159 183 2,600 -1,210 Descending Kansas City Center
07:41AM 39.3286 -94.7181 171° South 120 138 1,200 -793 Descending Kansas City Center
07:42AM 39.3025 -94.7272 195° South 119 137 1,000 -194 Descending Kansas City Center